Verkosto josta salamointi ja ukkosmyrskyt reaaliaikaisesti - Real time lightning map
Regions/Countries: current only
List of Stations for "-" sorted ascending by Closest
(Closest = Shortest distance to a strike position in whose calculation the station was involved)
StationKaupunkiCommentMaaRegionsStatusLast signalTotalValidInvolvedUsedClosestFarthest
1042Mesa, AZSystem onlineUnited States / ArizonaSouth America 1Running2024-07-15 12:41171191338116326971166 km4981 km
1846SinesCT4RK/blue/2 X 38cm Moebius lo...PortugalEurope 2Running2024-07-15 12:416328475548891178 km7032 km
1846SinesCT4RK/blue/2 X 38cm Moebius lo...PortugalEurope 3Running2024-07-15 12:416406481448581178 km7769 km
1846SinesCT4RK/blue/2 X 38cm Moebius lo...PortugalEurope 1Running2024-07-15 12:416394480221491179 km4945 km
2737LekerydCoax loop antennasSwedenJapan 1Running2024-07-15 12:39267185641181 km1870 km
2075tel avivIsraelEurope 3Idle2024-07-15 12:0672201192 km2220 km
2075tel avivIsraelEurope 2Idle2024-07-15 12:0672201193 km2220 km
1685SwannanoaElectricFence ProblemsNew ZealandOceania 1Running2024-07-15 12:4153496480248585601194 km2258 km
2365Pano ArodesCyprusAsia 1Running2024-07-15 12:411784711304276921199 km3519 km
2386Studen BESystem BLUESwitzerlandEurope 1Running2024-07-15 12:38109303001200 km1301 km
1820Tucson / Rita Ranch1 m coax loop antenna, 20 cm E...United States / ArizonaEurope 1Running2024-07-15 12:38538695063151201 km2443 km
1539MacombBlue Unshielded 9.5 X 210mm Ma...United States / IllinoisSouth America 1Running2024-07-15 12:4148184369757961204 km3962 km
2940KirksvilleUnited States / MissouriSouth America 1Running2024-07-15 12:41375202551619088951208 km3852 km
1272SanteeUnited States / CaliforniaNorth America 1Running2024-07-15 12:3671701861209 km3529 km
1820Tucson / Rita Ranch1 m coax loop antenna, 20 cm E...United States / ArizonaEurope 2Running2024-07-15 12:38540895251151212 km2256 km
2775RiyadhSaudi ArabiaEurope 1Running2024-07-15 12:414596350537131212 km3170 km
2302OaklandUnited States / CaliforniaNorth America 1Running2024-07-15 12:401257124861421213 km3461 km
2121CradocLoop + Electric Field AntennaAustralia / TasmaniaOceania 1Running2024-07-15 12:411551577328524731213 km4307 km
2269Manic V QCBlue 2x 200mm ferrite rodCanadaAsia 1Running2024-07-15 12:41698435433381221218 km3344 km
2775RiyadhSaudi ArabiaEurope 2Running2024-07-15 12:414599350852151219 km3835 km
2775RiyadhSaudi ArabiaEurope 3Running2024-07-15 12:414599350850131221 km3835 km
2243Da NangDUT &SITViet NamWorldRunning2024-07-15 12:40104802685841223 km2153 km
1998DhakaBUET, Kyoto Univ.& SITBangladeshOceania 1Running2024-07-15 12:40492440211237 km1369 km
1998DhakaBUET, Kyoto Univ.& SITBangladeshAsia 1Running2024-07-15 12:40492440211243 km1369 km
2775RiyadhSaudi ArabiaAfrica 1Running2024-07-15 12:414596350522121249 km5124 km
1788Oberschan, SGSystem Blue in AufbauSwitzerlandAsia 1Running2024-07-15 12:331098611250 km1429 km
2320Calvert Island, BCBLUE with 200mm ferrite rods &...CanadaNorth America 2Running2024-07-15 12:4129351888129771251 km5013 km
2935West JordanTemp location-testing hardwareUnited States / UtahAsia 1Running2024-07-15 12:414719528519274671252 km3165 km
1583Lamezia Terme (CZ), CalabriaSystem Blue H + EItalyEurope 2Running2024-07-15 12:38105821201255 km1865 km
1583Lamezia Terme (CZ), CalabriaSystem Blue H + EItalyEurope 3Running2024-07-15 12:38105821301255 km1865 km
2286KangerlussuaqLoop antenna 4 turn, square 10...GreenlandNorth America 1Running2024-07-15 12:4025712651258 km1641 km
2935West JordanTemp location-testing hardwareUnited States / UtahEurope 2Running2024-07-15 12:414693328421399271261 km9299 km
2935West JordanTemp location-testing hardwareUnited States / UtahEurope 3Running2024-07-15 12:414675128315391311261 km9593 km
1516SaimaanharjuE-field antenna indoors (noisy...FinlandEurope 2Running2024-07-15 12:4050304685501263 km2059 km
1516SaimaanharjuE-field antenna indoors (noisy...FinlandEurope 3Running2024-07-15 12:4049494607501263 km2059 km
1530TokyoShonan Institute of TechnologyJapanEurope 3Running2024-07-15 12:404924441521266 km10080 km
1826KanthararomThailandOceania 1Running2024-07-15 12:40576572321267 km1836 km
2709ValparaisoUnited States / IndianaSouth America 1Running2024-07-15 12:4147115291518853811269 km4215 km
1583Lamezia Terme (CZ), CalabriaSystem Blue H + EItalyEurope 1Running2024-07-15 12:38105821301275 km1806 km
1915Kitzeck im Sausalhouse moved from Limbach , SKAustriaEurope 2Running2024-07-15 12:40133301278 km1771 km
1915Kitzeck im Sausalhouse moved from Limbach , SKAustriaEurope 3Running2024-07-15 12:40133301278 km1771 km
2911Fermont QCBlue 2x 200mm ferrite rodCanadaEurope 3Running2024-07-15 12:4187346580483861283 km6525 km
2769OmskRussian FederationJapan 2Running2024-07-15 12:412603316154731288 km5998 km
29339Y4R-Port-of-Spainrobby@9Y4R.com - Blitzortung.o...Trinidad and TobagoNorth America 1Running2024-07-15 12:414994941961289 km3686 km
1261Rivalta sul Mincio (MN) - CMLItalyEurope 3Running2024-07-15 12:4163953102401290 km1319 km
1944WestfieldUnited States / New JerseySouth America 1Running2024-07-15 12:4112338828610734631293 km4667 km
1929MaynoothTesting System BlueIrelandEurope 3Running2024-07-15 12:40628960701301293 km5981 km
2320Calvert Island, BCBLUE with 200mm ferrite rods &...CanadaNorth America 1Running2024-07-15 12:4129341887710241293 km4608 km
1516SaimaanharjuE-field antenna indoors (noisy...FinlandEurope 1Running2024-07-15 12:40503046851001294 km2058 km
1818Renaico, IX RegionFirst station in Chile!ChileNorth America 2Interference2024-07-15 12:4020105139381021305 km9812 km
2935West JordanTemp location-testing hardwareUnited States / UtahJapan 1Running2024-07-15 12:41467352832970171306 km2600 km
1583Lamezia Terme (CZ), CalabriaSystem Blue H + EItalyAfrica 1Running2024-07-15 12:3810582821308 km4464 km
1546Pittsburgh (Blue)H-300x7.5mm shielded; BLUE PCB...United States / PennsylvaniaSouth America 1Running2024-07-15 12:4110646944536211308 km3022 km
1325DunedinSystem RED, custom antennaNew ZealandOceania 1Running2024-07-15 12:4123109171698654321310 km2545 km
2840SevillaTriana Observatory, Seville ca...SpainEurope 1Running2024-07-15 12:401279980281111317 km5157 km
2639WeavervilleBlue: 3 x 200mm FerritesUnited States / CaliforniaEurope 1Running2024-07-15 12:411665612543346721324 km4670 km
2287Paleochora, CreteSystem Blue: E-Field onlyGreeceEurope 3Running2024-07-15 12:413717724485901329 km10617 km
965RabatMaltaEurope 2Running2024-07-15 12:4115248146921501335 km8148 km
965RabatMaltaEurope 3Running2024-07-15 12:4115246146901001335 km8147 km
29339Y4R-Port-of-Spainrobby@9Y4R.com - Blitzortung.o...Trinidad and TobagoSouth America 1Running2024-07-15 12:414994941571336 km3924 km
2667Para Hills WestBack To Testing StageAustralia / South AustraliaOceania 1Running2024-07-15 12:3849271201336 km2301 km
2349Mil-LelTesting H FieldAustralia / South AustraliaOceania 1Running2024-07-15 12:4180868073227701338 km3685 km
2279AccraBlue ⋅ 2×200 ferrite ⋅ 7 ...GhanaAsia 1Running2024-07-15 12:4123871425881347 km1947 km
721Steisslingen (RED)System Red StesslingenGermanyEurope 1Running2024-07-15 12:39134961001348 km1791 km
2399ArorangiSystem BlueCook IslandsNorth America 2Running2024-07-15 12:41102397617621354 km10768 km
2013Kota KinabaluReplacement for 1867MalaysiaJapan 2Running2024-07-15 12:3835163134971355 km4137 km
2655Athol Idaho USA╬╬╬ 30cm RED ╬╬╬United States / IdahoEurope 1Running2024-07-15 12:4121370162463751091357 km4430 km
2593VishakhapatnamAndhra Univ. Kyoto Univ. & SITIndiaWorldRunning2024-07-15 12:41304029111371360 km2380 km
25799Y4R-Chaguanasrobby@9Y4R.com - Blitzortung.o...Trinidad and TobagoNorth America 1Running2024-07-15 12:3751427826111387 km3895 km
2640Africa 1Running2024-07-15 12:40781776971407 km2806 km
2953StrathalbynSHR/Hallett/CFS SBYN-02Australia / South AustraliaOceania 1Offline2024-07-15 09:27701353445513661409 km5861 km
946Sherman300mm x 7.5mm ferrite, AS3935United States / ConnecticutSouth America 1Running2024-07-15 12:41673950196864101417 km4425 km
1921Flores Island @ AzoresH-Field + E-Field System RedPortugalNorth America 1Running2024-07-15 12:409995218921435 km3136 km
1175IndependenceSystem Red shielded ferrite an...United States / IowaSouth America 1Running2024-07-15 12:412450412538171641447 km4106 km
2320Calvert Island, BCBLUE with 200mm ferrite rods &...CanadaEurope 1Running2024-07-15 12:4129341887121191452 km3216 km
2005ColchesterUnited States / ConnecticutSouth America 1Running2024-07-15 12:411068592017493791463 km4483 km
2381KopavogurIcelandNorth America 1Running2024-07-15 12:397235921464 km4190 km
1248RidgehavenRed E200mm onlyAustralia / South AustraliaOceania 1Running2024-07-15 12:4113777103239716341471 km5801 km
2260BayankhongorUniv. of the Ryukyus & SITMongoliaJapan 1Running2024-07-15 12:38498046511471 km1777 km
798LincolnUnited States / NebraskaSouth America 1Running2024-07-15 12:4074436152801473 km2470 km
2438Athelstone (IADELA729)2 x 200mm Ferrite, 200mm E-fie...Australia / South AustraliaOceania 1Running2024-07-15 12:41880829524581861474 km5805 km
2175IronbankAustralia / South AustraliaOceania 1Running2024-07-15 12:409598425031981476 km5818 km
778TallinnEstoniaEurope 2Running2024-07-15 12:411400713065301478 km1904 km
778TallinnEstoniaEurope 3Running2024-07-15 12:411400513064301478 km1904 km
1694Salisbury, South Australia3 x 200mm Ferrite + 300mm E. F...Australia / South AustraliaOceania 1Running2024-07-15 12:401281466163291301487 km5712 km
2283RiceH-Field: 2 - 20cm Ferrite Rods...United States / WashingtonAsia 1Running2024-07-15 12:41227036622131141489 km3891 km
2271TaperooTestingAustralia / South AustraliaOceania 1Running2024-07-15 12:40273187187341491 km2482 km
2381KopavogurIcelandEurope 2Running2024-07-15 12:397235501513 km1862 km
2381KopavogurIcelandEurope 3Running2024-07-15 12:397235501513 km1862 km
2381KopavogurIcelandAsia 1Running2024-07-15 12:397235311513 km1864 km
2617Voutsaras/ArkadiasBLUE E-FieldGreeceEurope 1Running2024-07-15 12:401005328401523 km1732 km
2381KopavogurIcelandEurope 1Running2024-07-15 12:3972353501527 km3755 km
2287Paleochora, CreteSystem Blue: E-Field onlyGreeceEurope 2Running2024-07-15 12:413753224689201531 km10617 km
966Darwin - Alawa200mm ferrites to test, was 30...Australia / Northern TerritoryOceania 1Running2024-07-15 12:411922152148221532 km4150 km
2614SeoulShonan Institute of TechnologyKorea, Republic ofJapan 1Running2024-07-15 12:374320521539 km2082 km
1368Belfast (Sydenham Red) * 30cm ...System redUnited KingdomNorth America 2Running2024-07-15 12:4099613011931548 km8034 km
2593VishakhapatnamAndhra Univ. Kyoto Univ. & SITIndiaJapan 1Running2024-07-15 12:403090295726251550 km3578 km
1096Shanklinrather noisy :(United KingdomEurope 2Running2024-07-15 12:40407918521201551 km2216 km
2888Algiers2 Ferrite Rod Antennas - 20cmAlgeriaAfrica 1Running2024-07-15 12:4110995979711562 km2813 km
2445West HarwichH-2 200x7.5mm E-100x1.5mmUnited States / MassachusettsSouth America 1Running2024-07-15 12:41186381540512494831564 km5037 km